DateTimeUTC,F1_A11,F1_S11,BsB_S11,BsG_S11,BsR_S11,BbsB_S11,BbsG_S11,BbsR_S11,BaB_A11,BaG_A11,BaR_A11,Tu_S11,T_S11,Uu_S11,U_S11,P_S11,T1_A11
2021-12-16T22:00:00Z,00000200,21000000,,,,,,,0000.48,0000.39,0000.62,21.1,27.9,,00.0,0640.5,31.3
2021-12-16T22:01:00Z,00000200,21000000,,,,,,,0000.06,0000.20,-000.14,21.1,27.9,,00.0,0640.5,31.3
2021-12-16T22:02:00Z,00000200,21000000,,,,,,,-000.13,-000.31,-000.09,21.1,27.9,,00.0,0640.5,31.3
2021-12-16T22:03:00Z,00000200,61000000,,,,,,,0000.19,0000.32,0000.33,21.1,27.9,,00.0,0640.5,31.2
2021-12-16T22:04:00Z,00000200,41000000,-000.07,0000.04,0000.20,0000.60,0000.09,-000.03,0000.16,-000.34,-000.03,21.0,27.6,,00.0,0641.1,31.2
2021-12-16T22:05:00Z,00000200,01000000,0000.32,-000.22,-000.02,0000.75,-000.13,0000.07,0000.10,0000.16,-000.13,20.9,27.5,,00.0,0641.3,31.2
2021-12-16T22:06:00Z,00000200,01000000,-000.49,0000.02,0000.06,-000.06,0000.13,0000.06,0000.33,0000.33,0000.38,20.8,27.5,,00.0,0641.3,31.1
2021-12-16T22:07:00Z,00000200,01000000,0000.60,0000.04,0000.33,0000.14,0000.14,0000.20,-000.10,-000.07,0000.02,20.8,27.4,,00.0,0641.3,31.1
2021-12-16T22:08:00Z,00000200,01000000,0000.57,-000.01,0000.10,0000.63,-000.31,-000.01,0000.06,0000.35,0000.07,20.8,27.4,,00.0,0641.3,31.2
2021-12-16T22:09:00Z,00000200,01000000,0001.00,0000.12,0000.23,0000.35,0000.33,-000.10,0000.18,0000.20,-000.13,20.9,27.4,,00.0,0641.5,31.2
2021-12-16T22:10:00Z,00000200,01000000,0000.13,-000.25,0000.02,0000.22,0000.07,-000.10,0000.12,-000.18,0000.36,20.9,27.5,,00.0,0641.5,31.2
2021-12-16T22:11:00Z,00000200,01000000,-000.16,0000.16,-000.13,0000.50,-000.05,-000.34,0000.23,0000.15,0000.05,20.9,27.4,,00.0,0641.4,31.2
2021-12-16T22:12:00Z,00000200,01000000,-000.00,-000.30,-000.06,-000.00,0000.10,-000.04,-000.09,0000.18,-000.01,21.0,27.5,,00.0,0641.4,31.2
2021-12-16T22:13:00Z,00000200,01000000,-000.25,0000.25,0000.56,-000.01,0000.24,0000.04,0000.33,0000.14,0000.13,21.0,27.5,,00.0,0641.4,31.2
2021-12-16T22:14:00Z,00000200,01000000,-000.43,0000.02,-000.12,0000.54,-000.16,0000.11,-000.13,0000.15,0000.21,21.1,27.5,,00.0,0641.5,31.2
2021-12-16T22:15:00Z,00000200,01000000,0000.61,-000.06,-000.05,0000.05,0000.19,-000.07,0000.27,-000.03,-000.28,21.1,27.5,,00.0,0641.4,31.2
2021-12-16T22:16:00Z,00000200,01000000,0000.96,0000.20,0000.39,0001.15,-000.02,-000.12,-000.03,0000.00,-000.32,21.2,27.5,,00.0,0641.4,31.2
2021-12-16T22:17:00Z,00000200,01000000,0000.10,-000.02,0000.29,0000.14,0000.36,0000.14,-000.06,-000.15,0000.20,21.2,27.6,,00.0,0641.4,31.2
2021-12-16T22:18:00Z,00000200,01000000,0000.43,-000.11,0000.11,0000.14,0000.18,0000.08,0000.01,-000.03,0000.26,21.2,27.5,,00.0,0641.5,31.2
2021-12-16T22:19:00Z,00000200,01000000,0000.82,0000.20,0000.20,0000.49,0000.32,0000.31,0000.11,0000.17,0000.43,21.1,27.5,,00.0,0641.4,31.2
2021-12-16T22:20:00Z,00000200,01000000,0000.21,-000.06,0000.50,0001.10,0000.48,-000.16,0000.32,0000.03,-000.29,21.0,27.5,,00.0,0641.4,31.2
2021-12-16T22:21:00Z,00000200,01000000,-000.52,0000.05,-000.05,0000.26,0000.15,0000.22,0000.06,0000.53,0000.05,21.0,27.5,,00.0,0641.4,31.2
2021-12-16T22:22:00Z,00000200,01000000,0000.27,0000.00,0000.18,0000.18,0000.28,0000.15,0000.02,-000.33,0000.46,21.0,27.5,,00.0,0641.4,31.2
2021-12-16T22:23:00Z,00000200,01000000,0000.52,0000.12,0000.62,0000.07,0000.39,0000.49,0000.34,0000.32,0000.05,21.1,27.5,,00.0,0641.4,31.2
2021-12-16T22:24:00Z,00000200,01000000,0000.46,-000.05,0000.11,0000.42,0000.09,0000.11,-000.10,0000.10,-000.37,21.1,27.5,,00.0,0641.4,31.2
2021-12-16T22:25:00Z,00000200,01000000,0000.60,0000.35,0000.43,0000.29,0000.17,0000.25,0000.13,-000.12,0000.13,21.1,27.5,,00.0,0641.4,31.2
2021-12-16T22:26:00Z,00000200,01000000,0000.00,0000.43,-000.19,0000.73,0000.02,-000.09,0000.18,-000.18,0000.28,21.2,27.5,,00.0,0641.4,31.2
2021-12-16T22:27:00Z,00000200,01000000,0000.23,0000.13,-000.13,0000.14,0000.12,0000.13,0000.04,0000.85,-000.17,21.2,27.5,,00.0,0641.4,31.2
2021-12-16T22:28:00Z,00000200,01000000,0000.28,0000.10,0000.23,0000.51,0000.13,-000.27,-000.41,-000.37,0000.21,21.3,27.5,,00.0,0641.5,31.2
2021-12-16T22:29:00Z,00000200,01000000,0000.40,-000.46,0000.35,0000.22,-000.15,0000.10,0000.59,-000.01,0000.18,21.3,27.6,,00.0,0641.5,31.3
2021-12-16T22:30:00Z,00000200,01000000,0000.81,-000.35,0000.12,0001.09,0000.14,0000.23,-000.24,-000.04,-000.23,21.4,27.6,,00.0,0641.6,31.3
2021-12-16T22:31:00Z,00000200,01000000,-000.04,0000.18,-000.00,-000.10,0000.16,0000.34,0000.05,0000.07,0000.04,21.4,27.6,,00.0,0641.6,31.3
2021-12-16T22:32:00Z,00000200,01000000,0000.20,0000.13,0000.36,-000.64,0000.36,-000.06,-000.10,0000.18,-000.05,21.4,27.6,,00.0,0641.6,31.3
2021-12-16T22:33:00Z,00000200,01000000,0000.16,-000.07,-000.16,-000.26,0000.45,-000.23,0000.17,-000.15,0000.04,21.4,27.6,,00.0,0641.6,31.3
2021-12-16T22:34:00Z,00000200,01000000,0000.17,-000.00,-000.26,0001.01,0000.32,-000.06,-000.19,0000.08,0000.03,21.3,27.6,,00.0,0641.6,31.3
2021-12-16T22:35:00Z,00000200,01000000,0000.89,-000.11,0000.39,0000.48,-000.11,0000.11,-000.20,-000.00,-000.12,21.3,27.6,,00.0,0641.6,31.3
2021-12-16T22:36:00Z,00000200,01000000,0000.32,-000.05,0000.22,0000.04,0000.38,0000.41,-000.00,-000.17,-000.11,21.3,27.6,,00.0,0641.6,31.3
2021-12-16T22:37:00Z,00000200,01000000,0000.70,-000.21,0000.20,0000.57,-000.01,0000.23,0000.21,-000.04,0000.07,21.3,27.6,,00.0,0641.6,31.3
2021-12-16T22:38:00Z,00000200,01000000,0001.45,0000.17,0000.20,0000.43,0000.37,0000.33,-000.07,0000.12,0000.16,21.3,27.6,,00.0,0641.6,31.3
2021-12-16T22:39:00Z,00000200,01000000,-000.21,0000.09,0000.44,0000.72,0000.54,0000.40,-000.07,-000.12,-000.18,21.4,27.6,,00.0,0641.6,31.3
2021-12-16T22:40:00Z,00000200,01000000,0000.17,-000.00,0000.39,0000.48,-000.14,0000.29,0000.10,0000.06,0000.01,21.4,27.6,,00.0,0641.6,31.3
2021-12-16T22:41:00Z,00000200,01000000,-000.54,-000.20,0000.00,0000.37,0000.16,-000.12,-000.13,0000.07,-000.21,21.4,27.6,,00.0,0641.7,31.3
2021-12-16T22:42:00Z,00000200,01000000,0000.10,0000.10,0000.30,0000.55,-000.23,0000.08,0000.14,0000.01,0000.25,21.5,27.7,,00.0,0641.7,31.4
2021-12-16T22:43:00Z,00000200,01000000,-000.05,-000.21,0000.15,0000.29,-000.36,0000.13,-000.20,-000.37,-000.20,21.5,27.7,,00.0,0641.8,31.4
2021-12-16T22:44:00Z,00000200,01000000,-000.32,0000.10,-000.12,0001.35,-000.20,0000.24,0000.02,0000.29,0000.04,21.5,27.7,,00.0,0641.7,31.4
2021-12-16T22:45:00Z,00000200,01000000,0000.99,-000.08,0000.13,0001.14,-000.01,-000.31,-000.23,0000.04,0000.10,21.4,27.7,,00.0,0641.7,31.4
2021-12-16T22:46:00Z,00000200,01000000,0000.78,0000.10,-000.04,0000.52,0000.22,-000.02,0000.17,0000.04,-000.12,21.4,27.7,,00.0,0641.7,31.3
2021-12-16T22:47:00Z,00000200,01000000,0000.13,0000.01,0000.15,-000.01,0000.15,0000.25,-000.08,-000.14,0000.20,21.3,27.6,,00.0,0641.7,31.3
2021-12-16T22:48:00Z,00000200,01000000,0001.10,-000.11,-000.19,0000.45,0000.04,0000.29,0000.59,0000.07,0000.29,21.2,27.6,,00.0,0641.7,31.3
2021-12-16T22:49:00Z,00000200,01000000,-000.41,0000.10,-000.07,0000.11,0000.34,0000.04,-000.10,0000.10,-000.18,21.1,27.6,,00.0,0641.7,31.3
2021-12-16T22:50:00Z,00000200,01000000,-000.01,0000.36,-000.09,-000.02,0000.25,-000.20,-000.20,-000.22,0000.11,21.1,27.5,,00.0,0641.7,31.3
2021-12-16T22:51:00Z,00000200,01000000,0000.15,0000.05,0000.56,0000.10,0000.37,0000.30,-000.21,0000.05,-000.04,21.0,27.5,,00.0,0641.8,31.3
2021-12-16T22:52:00Z,00000200,01000000,0000.83,-000.21,0000.39,-000.23,0000.20,0000.57,0000.27,0000.14,-000.09,21.1,27.5,,00.0,0641.7,31.3
2021-12-16T22:53:00Z,00000200,01000000,0000.41,-000.10,0000.21,0000.06,0000.38,0000.23,-000.05,0000.19,0000.04,21.1,27.5,,00.0,0641.8,31.3
2021-12-16T22:54:00Z,00000200,01000000,0000.43,0000.48,0000.06,0000.22,0000.17,0000.33,0000.28,0000.05,-000.07,21.2,27.5,,00.0,0641.7,31.3
2021-12-16T22:55:00Z,00000200,01000000,0000.70,0000.26,-000.09,-000.09,0000.10,-000.30,-000.04,-000.04,0000.05,21.2,27.5,,00.0,0641.7,31.3
2021-12-16T22:56:00Z,00000200,01000000,0000.19,0000.09,0000.48,0000.58,0000.01,-000.17,0000.05,0000.20,0000.02,21.2,27.6,,00.0,0641.7,31.3
2021-12-16T22:57:00Z,00000200,41000000,,,,,,,0000.44,-000.14,0000.32,21.3,27.6,,00.0,0641.6,31.3
2021-12-16T22:58:00Z,00000200,61000000,,,,,,,-000.49,0000.43,-000.04,20.9,27.7,,00.0,0640.7,31.3
2021-12-16T22:59:00Z,00000200,21000000,,,,,,,0000.35,-000.36,-000.04,20.9,27.8,,00.0,0640.7,31.3
